EW4337 Weather Reports


Display with metric or nautical units.
time (UTC)temp
F
wind
direction
speed
MPH
gust
MPH
rain 1hr
in
rain 24hr
in
rain mn
in
humidity
%
barometer
mb
20260902230704 63 246 5.0 12.0 0.00 0.00 0.00 89 1016.0
20260902230204 63 202 6.0 12.0 0.00 0.00 0.00 89 1016.1
20260902225704 63 202 3.0 12.0 0.00 0.00 0.00 89 1016.1
20260902225204 63 214 4.0 12.0 0.00 0.00 0.00 89 1016.2
20260902224704 63 170 2.0 7.0 0.00 0.00 0.00 89 1016.1
20260902224203 63 217 5.0 12.0 0.00 0.00 0.00 89 1016.2
20260902223704 63 191 3.0 6.0 0.00 0.00 0.00 88 1016.3
20260902223204 63 174 3.0 9.0 0.00 0.00 0.00 88 1016.3
20260902222704 63 177 3.0 12.0 0.00 0.00 0.00 88 1016.3
20260902222204 63 161 2.0 8.0 0.00 0.00 0.00 88 1016.3
20260902221204 63 164 2.0 5.0 0.00 0.00 0.00 88 1016.4
20260902220704 63 178 2.0 5.0 0.00 0.00 0.00 88 1016.5
20260902220204 63 156 2.0 6.0 0.00 0.00 0.00 88 1016.4
20260902215703 63 163 2.0 7.0 0.00 0.00 0.00 88 1016.5
20260902215203 63 169 3.0 8.0 0.00 0.00 0.00 88 1016.6
20260902214703 63 165 2.0 5.0 0.00 0.00 0.00 88 1016.6
20260902214203 63 198 0.0 6.0 0.00 0.00 0.00 88 1016.6
20260902213705 63 174 2.0 6.0 0.00 0.00 0.00 88 1016.6
20260902213203 63 196 1.0 3.0 0.00 0.00 0.00 88 1016.7
20260902212703 63 232 3.0 7.0 0.00 0.00 0.00 87 1016.8
20260902212203 64 231 3.0 5.0 0.00 0.00 0.00 87 1016.8
20260902211703 64 250 3.0 7.0 0.00 0.00 0.00 87 1016.8
20260902211204 64 233 4.0 6.0 0.00 0.00 0.00 87 1016.9
20260902210703 64 245 3.0 7.0 0.00 0.00 0.00 87 1016.8
20260902210203 64 240 3.0 6.0 0.00 0.00 0.00 87 1016.8
20260902204703 64 242 7.0 13.0 0.00 0.00 0.00 86 1017.0
20260902204204 64 234 8.0 17.0 0.00 0.00 0.00 86 1017.0
20260902203703 64 204 2.0 7.0 0.00 0.00 0.00 86 1016.9
20260902203203 64 180 0.0 3.0 0.00 0.00 0.00 86 1016.9
20260902202203 64 170 1.0 3.0 0.00 0.00 0.00 86 1017.0
20260902201703 64 162 2.0 5.0 0.00 0.00 0.00 85 1016.9
20260902201204 64 166 1.0 3.0 0.00 0.00 0.00 85 1017.0
20260902200703 64 171 0.0 0.0 0.00 0.00 0.00 85 1017.1
20260902200205 64 178 0.0 2.0 0.00 0.00 0.00 85 1017.1
20260902194703 64 193 0.0 0.0 0.00 0.00 0.00 84 1017.1
20260902194204 64 173 0.0 0.0 0.00 0.00 0.00 83 1017.1
20260902193203 64 210 0.0 0.0 0.00 0.00 0.00 83 1017.2
20260902192704 65 207 0.0 0.0 0.00 0.00 0.00 83 1017.2
20260902192203 65 209 0.0 0.0 0.00 0.00 0.00 82 1017.2
20260902191704 65 213 0.0 1.0 0.00 0.00 0.00 82 1017.2
20260902190704 65 212 1.0 3.0 0.00 0.00 0.00 81 1017.3
20260902190204 65 217 0.0 2.0 0.00 0.00 0.00 81 1017.3
20260902185704 65 206 1.0 3.0 0.00 0.00 0.00 81 1017.3
20260902185205 65 186 0.0 0.0 0.00 0.00 0.00 80 1017.3
20260902184704 66 234 0.0 0.0 0.00 0.00 0.00 79 1017.3
20260902184204 66 234 0.0 0.0 0.00 0.00 0.00 79 1017.3
20260902183704 66 234 0.0 0.0 0.00 0.00 0.00 79 1017.3
20260902183204 66 234 0.0 0.0 0.00 0.00 0.00 78 1017.3
20260902181704 66 225 0.0 3.0 0.00 0.00 0.00 77 1017.2
20260902181204 66 222 1.0 2.0 0.00 0.00 0.00 77 1017.2
20260902180703 66 220 1.0 2.0 0.00 0.00 0.00 77 1017.2
20260902180203 67 220 2.0 3.0 0.00 0.00 0.00 76 1017.2
20260902175704 67 243 2.0 3.0 0.00 0.00 0.00 76 1017.2
20260902174704 67 230 2.0 5.0 0.00 0.00 0.00 75 1017.1
20260902173704 67 237 4.0 6.0 0.00 0.00 0.00 74 1017.2
20260902173204 68 236 3.0 7.0 0.00 0.00 0.00 74 1017.2
20260902172204 68 235 4.0 7.0 0.00 0.00 0.00 73 1017.3
20260902171702 69 252 5.0 8.0 0.00 0.00 0.00 72 1017.2
20260902170702 69 278 5.0 10.0 0.00 0.00 0.00 71 1017.3
20260902170202 69 271 7.0 12.0 0.00 0.00 0.00 70 1017.3
20260902165704 70 255 4.0 9.0 0.00 0.00 0.00 71 1017.3
20260902165202 70 247 5.0 12.0 0.00 0.00 0.00 70 1017.2
20260902164703 70 252 5.0 12.0 0.00 0.00 0.00 70 1017.2
20260902164203 70 246 6.0 13.0 0.00 0.00 0.00 69 1017.2
20260902163702 70 244 7.0 15.0 0.00 0.00 0.00 68 1017.3
20260902163203 71 252 10.0 15.0 0.00 0.00 0.00 68 1017.3
20260902162703 71 275 6.0 12.0 0.00 0.00 0.00 68 1017.3
20260902161703 71 240 5.0 8.0 0.00 0.00 0.00 71 1017.2
20260902161203 70 254 3.0 9.0 0.00 0.00 0.00 71 1017.2
20260902155702 71 272 5.0 10.0 0.00 0.00 0.00 71 1017.3
20260902155203 71 235 5.0 12.0 0.00 0.00 0.00 70 1017.3
20260902153703 71 247 5.0 10.0 0.00 0.00 0.00 70 1017.5
20260902153203 71 274 7.0 12.0 0.00 0.00 0.00 69 1017.5
20260902152703 72 247 4.0 12.0 0.00 0.00 0.00 68 1017.6
20260902152203 72 253 7.0 16.0 0.00 0.00 0.00 67 1017.5
20260902151703 72 264 8.0 14.0 0.00 0.00 0.00 67 1017.6
20260902151203 72 282 7.0 13.0 0.00 0.00 0.00 67 1017.6
20260902150703 71 275 5.0 17.0 0.00 0.00 0.00 67 1017.7
20260902150203 71 232 6.0 18.0 0.00 0.00 0.00 66 1017.6
20260902145703 71 250 10.0 17.0 0.00 0.00 0.00 65 1017.6
20260902145203 72 244 9.0 17.0 0.00 0.00 0.00 65 1017.6
20260902144703 72 242 8.0 15.0 0.00 0.00 0.00 66 1017.6
20260902144203 73 269 7.0 14.0 0.00 0.00 0.00 67 1017.6
20260902143703 73 263 4.0 12.0 0.00 0.00 0.00 67 1017.5
20260902143203 73 249 6.0 12.0 0.00 0.00 0.00 67 1017.5
20260902142705 73 275 7.0 13.0 0.00 0.00 0.00 67 1017.5
20260902141704 72 247 8.0 13.0 0.00 0.00 0.00 67 1017.6
20260902141203 72 271 7.0 14.0 0.00 0.00 0.00 67 1017.6
20260902140703 72 243 9.0 13.0 0.00 0.00 0.00 67 1017.6
20260902140203 72 237 9.0 17.0 0.00 0.00 0.00 67 1017.5
20260902135703 72 261 5.0 13.0 0.00 0.00 0.00 68 1017.5
20260902135203 72 230 9.0 16.0 0.00 0.00 0.00 67 1017.4
20260902134704 72 275 7.0 13.0 0.00 0.00 0.00 68 1017.4
20260902133204 73 268 5.0 12.0 0.00 0.00 0.00 68 1017.4
20260902132704 73 279 8.0 12.0 0.00 0.00 0.00 68 1017.4
20260902132203 73 264 6.0 13.0 0.00 0.00 0.00 68 1017.3
20260902131703 74 265 8.0 20.0 0.00 0.00 0.00 68 1017.4
20260902131204 73 266 9.0 14.0 0.00 0.00 0.00 69 1017.4
20260902130703 74 285 7.0 12.0 0.00 0.00 0.00 69 1017.4
20260902130203 73 253 8.0 13.0 0.00 0.00 0.00 70 1017.4
20260902125203 71 291 7.0 12.0 0.00 0.00 0.00 75 1017.5
20260902124204 72 254 9.0 15.0 0.00 0.00 0.00 73 1017.5
20260902122704 70 266 6.0 12.0 0.00 0.00 0.00 78 1017.6
20260902122204 70 261 7.0 16.0 0.00 0.00 0.00 78 1017.6
20260902121704 70 272 5.0 12.0 0.00 0.00 0.00 79 1017.6
20260902121203 70 231 7.0 13.0 0.00 0.00 0.00 78 1017.7
20260902120204 70 263 8.0 13.0 0.00 0.00 0.00 78 1017.6
20260902115704 70 255 6.0 13.0 0.00 0.00 0.00 78 1017.6
20260902115203 69 254 6.0 14.0 0.00 0.00 0.00 77 1017.6
20260902114704 69 236 7.0 12.0 0.00 0.00 0.00 76 1017.6
20260902114203 69 248 4.0 12.0 0.00 0.00 0.00 75 1017.6
20260902113704 69 240 6.0 14.0 0.00 0.00 0.00 75 1017.6
20260902113203 70 244 7.0 13.0 0.00 0.00 0.00 75 1017.7
20260902112704 70 239 6.0 13.0 0.00 0.00 0.00 76 1017.6
20260902112204 70 245 8.0 13.0 0.00 0.00 0.00 75 1017.6
20260902111704 70 234 6.0 13.0 0.00 0.00 0.00 75 1017.6
20260902111203 71 218 4.0 10.0 0.00 0.00 0.00 76 1017.5
20260902110704 71 237 7.0 13.0 0.00 0.00 0.00 76 1017.5
20260902110204 71 249 5.0 9.0 0.00 0.00 0.00 77 1017.5
20260902105704 71 254 5.0 10.0 0.00 0.00 0.00 77 1017.5
20260902105203 71 247 6.0 12.0 0.00 0.00 0.00 77 1017.6
20260902104704 71 242 4.0 7.0 0.00 0.00 0.00 79 1017.6
20260902104204 70 249 4.0 10.0 0.00 0.00 0.00 79 1017.6
20260902103704 70 222 7.0 12.0 0.00 0.00 0.00 78 1017.7
20260902103204 70 263 5.0 12.0 0.00 0.00 0.00 80 1017.7
20260902102704 70 234 7.0 12.0 0.00 0.00 0.00 80 1017.7
20260902102204 70 278 7.0 12.0 0.00 0.00 0.00 80 1017.7
20260902101704 70 263 9.0 14.0 0.00 0.00 0.00 80 1017.8
20260902101204 70 234 6.0 14.0 0.00 0.00 0.00 80 1017.7
20260902100704 69 239 9.0 14.0 0.00 0.00 0.00 80 1017.7
20260902100203 70 259 4.0 10.0 0.00 0.00 0.00 81 1017.6
20260902095703 70 245 5.0 9.0 0.00 0.00 0.00 82 1017.6
20260902095203 69 237 5.0 12.0 0.00 0.00 0.00 82 1017.6
20260902094704 69 245 7.0 13.0 0.00 0.00 0.00 82 1017.7
20260902094204 70 231 8.0 12.0 0.00 0.00 0.00 81 1017.7
20260902093703 70 214 6.0 12.0 0.00 0.00 0.00 82 1017.6
20260902093204 70 248 7.0 12.0 0.00 0.00 0.00 82 1017.6
20260902092704 70 223 5.0 9.0 0.00 0.00 0.00 83 1017.5
20260902092204 69 240 3.0 10.0 0.00 0.00 0.00 83 1017.5
20260902091204 69 159 6.0 12.0 0.00 0.00 0.00 83 1017.5
20260902090204 69 213 4.0 9.0 0.00 0.00 0.00 84 1017.5
20260902085704 68 229 4.0 9.0 0.00 0.00 0.00 85 1017.4
20260902085204 67 229 5.0 9.0 0.00 0.00 0.00 86 1017.4
20260902084704 66 179 5.0 12.0 0.00 0.00 0.00 88 1017.4
20260902084204 66 218 5.0 12.0 0.00 0.00 0.00 88 1017.4
20260902083704 65 217 3.0 8.0 0.00 0.00 0.00 89 1017.4
20260902083204 65 221 5.0 10.0 0.00 0.00 0.00 89 1017.4
20260902082703 65 194 4.0 9.0 0.00 0.00 0.00 89 1017.4
20260902081704 64 194 3.0 7.0 0.00 0.00 0.00 90 1017.3
20260902081204 63 227 4.0 9.0 0.00 0.00 0.00 90 1017.3
20260902080704 63 244 6.0 12.0 0.00 0.00 0.00 90 1017.4
20260902075705 62 211 5.0 10.0 0.00 0.00 0.00 91 1017.4
20260902075204 62 214 4.0 10.0 0.00 0.00 0.00 91 1017.2
20260902074204 61 227 6.0 12.0 0.00 0.00 0.00 91 1017.2
20260902073704 61 219 5.0 10.0 0.00 0.00 0.00 91 1017.2
20260902073204 61 179 3.0 9.0 0.00 0.00 0.00 92 1017.1
20260902072702 61 201 2.0 8.0 0.00 0.00 0.00 92 1017.1
20260902072202 61 185 3.0 8.0 0.00 0.00 0.00 92 1017.1
20260902071202 60 185 3.0 9.0 0.00 0.00 0.00 92 1017.1
20260902070702 60 180 3.0 5.0 0.00 0.00 0.00 92 1017.2
20260902070202 60 182 2.0 7.0 0.00 0.00 0.00 92 1017.1
20260902065702 60 182 2.0 6.0 0.00 0.00 0.00 92 1017.1
20260902065202 59 182 2.0 6.0 0.00 0.00 0.00 92 1017.1
20260902064703 59 193 2.0 9.0 0.00 0.00 0.00 93 1017.1
20260902064202 59 205 2.0 5.0 0.00 0.00 0.00 93 1017.2
20260902063702 59 186 3.0 6.0 0.00 0.00 0.00 93 1017.1
20260902062702 58 199 1.0 7.0 0.00 0.00 0.00 93 1017.1
20260902062203 58 169 2.0 5.0 0.00 0.00 0.00 93 1017.1
20260902061702 58 197 3.0 5.0 0.00 0.00 0.00 93 1017.1
20260902060702 58 184 3.0 9.0 0.00 0.00 0.00 94 1017.1
20260902060203 57 185 3.0 6.0 0.00 0.00 0.00 94 1017.1
20260902055702 57 194 3.0 6.0 0.00 0.00 0.00 94 1017.1
20260902055202 57 189 2.0 6.0 0.00 0.00 0.00 94 1017.1
20260902054702 57 177 3.0 7.0 0.00 0.00 0.00 93 1017.1
20260902054203 57 184 4.0 7.0 0.00 0.00 0.00 94 1017.1
20260902053702 56 172 3.0 8.0 0.00 0.00 0.00 94 1017.1
20260902053202 56 180 4.0 7.0 0.00 0.00 0.00 94 1017.1
20260902052702 56 184 3.0 7.0 0.00 0.00 0.00 94 1017.1
20260902052203 56 180 3.0 6.0 0.00 0.00 0.00 93 1017.2
20260902051203 56 179 3.0 7.0 0.00 0.00 0.00 93 1017.1
20260902050703 56 176 2.0 5.0 0.00 0.00 0.00 93 1017.1
20260902045703 56 175 4.0 8.0 0.00 0.00 0.00 93 1017.1
20260902045203 56 170 3.0 6.0 0.00 0.00 0.00 93 1017.1
20260902044203 56 172 3.0 7.0 0.00 0.00 0.00 93 1017.1
20260902043703 56 180 3.0 6.0 0.00 0.00 0.00 93 1017.1
20260902043203 56 166 4.0 8.0 0.00 0.00 0.00 93 1017.1
20260902042703 56 169 4.0 7.0 0.00 0.00 0.00 93 1017.1
20260902042203 56 164 3.0 7.0 0.00 0.00 0.00 93 1017.1
20260902041702 56 172 3.0 5.0 0.00 0.00 0.00 93 1017.1
20260902041203 56 172 2.0 6.0 0.00 0.00 0.00 93 1017.1
20260902040703 56 190 3.0 5.0 0.00 0.00 0.00 93 1017.2
20260902040203 56 159 2.0 6.0 0.00 0.00 0.00 93 1017.1
20260902035203 56 166 3.0 6.0 0.00 0.00 0.00 93 1017.2
20260902034203 56 170 1.0 5.0 0.00 0.00 0.00 93 1017.3
20260902033203 56 174 4.0 7.0 0.00 0.00 0.00 93 1017.3
20260902032703 56 170 2.0 6.0 0.00 0.00 0.00 93 1017.4
20260902032203 56 182 2.0 3.0 0.00 0.00 0.00 93 1017.4
20260902031703 56 182 2.0 7.0 0.00 0.00 0.00 93 1017.5
20260902031203 56 180 3.0 10.0 0.00 0.00 0.00 93 1017.5
20260902030703 56 172 3.0 7.0 0.00 0.00 0.00 93 1017.5
20260902030203 56 168 5.0 8.0 0.00 0.00 0.00 93 1017.6
20260902025704 56 175 3.0 7.0 0.00 0.00 0.00 93 1017.6
20260902025203 56 160 3.0 6.0 0.00 0.00 0.00 93 1017.7
20260902024703 56 178 3.0 5.0 0.00 0.00 0.00 93 1017.7
20260902024203 56 167 3.0 6.0 0.00 0.00 0.00 94 1017.7
20260902023703 56 167 5.0 8.0 0.00 0.00 0.00 94 1017.8
20260902023203 56 174 3.0 6.0 0.00 0.00 0.00 94 1017.8
20260902022203 56 175 2.0 3.0 0.00 0.00 0.00 94 1017.8
20260902021703 56 185 2.0 3.0 0.00 0.00 0.00 94 1017.9
20260902021203 56 201 1.0 3.0 0.00 0.00 0.00 94 1018.0
20260902020704 56 184 1.0 3.0 0.00 0.00 0.00 94 1018.0
20260902020204 56 184 1.0 2.0 0.00 0.00 0.00 94 1017.9
20260902015705 55 180 1.0 3.0 0.00 0.00 0.00 94 1017.9
20260902015203 55 179 1.0 3.0 0.00 0.00 0.00 94 1017.9
20260902014704 55 180 3.0 6.0 0.00 0.00 0.00 94 1017.9
20260902014203 55 170 2.0 5.0 0.00 0.00 0.00 94 1017.9
20260902013703 55 176 3.0 6.0 0.00 0.00 0.00 94 1017.9
20260902013204 55 175 2.0 5.0 0.00 0.00 0.00 94 1017.9
20260902012703 55 177 3.0 5.0 0.00 0.00 0.00 94 1017.9
20260902012203 55 185 1.0 3.0 0.00 0.00 0.00 94 1018.0
20260902011704 55 171 1.0 3.0 0.00 0.00 0.00 94 1017.9
20260902011203 55 172 3.0 6.0 0.00 0.00 0.00 94 1018.0
20260902010703 55 172 3.0 6.0 0.00 0.00 0.00 94 1017.9
20260902005703 55 164 2.0 5.0 0.00 0.00 0.00 94 1017.9
20260902005204 55 162 2.0 3.0 0.00 0.00 0.00 94 1017.9
20260902003704 55 174 1.0 3.0 0.00 0.00 0.00 94 1018.0
20260902003204 55 181 1.0 2.0 0.00 0.00 0.00 94 1018.0
20260902002204 55 173 1.0 3.0 0.00 0.00 0.00 94 1018.1
20260902001704 55 160 0.0 2.0 0.00 0.00 0.00 94 1018.1
20260902000704 55 189 0.0 0.0 0.00 0.00 0.00 93 1018.1
20260902000205 55 177 0.0 0.0 0.00 0.00 0.00 93 1018.1
20260901235204 55 188 0.0 0.0 0.00 0.00 0.00 93 1018.2
20260901234703 55 183 0.0 0.0 0.00 0.00 0.00 93 1018.2
20260901234204 55 171 0.0 0.0 0.00 0.00 0.00 93 1018.2
20260901233703 55 207 0.0 1.0 0.00 0.00 0.00 93 1018.2
20260901232704 55 207 0.0 0.0 0.00 0.00 0.00 93 1018.3
20260901232204 55 207 0.0 0.0 0.00 0.00 0.00 93 1018.3
20260901231704 55 207 0.0 0.0 0.00 0.00 0.00 93 1018.2
20260901231203 55 207 0.0 2.0 0.00 0.00 0.00 93 1018.3